Location: Melbourne
(37.8666°S, 145.1333°E)
Time: 07:39:49
(UTC+11:00)

Iridium 72 - Visible Passes

Search period start: 26 November 2014 00:00
Search period end: 06 December 2014 00:00
Orbit: 776 x 779 km, 86.4° (Epoch: 25 November)

Date Brightness Start Highest point End Pass type
(mag) Time Alt. Az. Time Alt. Az. Time Alt. Az.
26 Nov 6.1 01:50:17 52° ESE 01:50:17 52° ESE 01:54:44 10° SSE visible
26 Nov 7.4 03:30:45 15° WSW 03:30:45 15° WSW 03:33:43 10° SW visible
27 Nov 7.0 01:16:51 29° ESE 01:16:51 29° ESE 01:20:45 10° SSE visible
27 Nov 6.8 02:57:19 28° WSW 02:57:19 28° WSW 03:01:23 10° SSW visible
28 Nov 7.7 00:43:24 16° ESE 00:43:24 16° ESE 00:46:08 10° SE visible
28 Nov 6.1 02:23:52 49° WSW 02:23:52 49° WSW 02:28:20 10° S visible
29 Nov 5.8 01:50:25 64° SSE 01:50:25 64° SSE 01:54:55 10° S visible
29 Nov 7.8 03:30:53 10° WSW 03:31:00 10° WSW 03:31:22 10° WSW visible
30 Nov 6.5 01:16:58 40° ESE 01:16:58 40° ESE 01:21:10 10° SSE visible
30 Nov 7.3 02:57:26 20° WSW 02:57:26 20° WSW 03:00:52 10° SSW visible
01 Dec 7.2 00:43:30 23° ESE 00:43:30 23° ESE 00:46:58 10° SSE visible
01 Dec 6.6 02:23:58 35° WSW 02:23:58 35° WSW 02:28:10 10° SSW visible
02 Dec 7.8 00:10:01 12° ESE 00:10:01 12° ESE 00:11:46 10° SE visible
02 Dec 5.9 01:50:29 59° SW 01:50:29 59° SW 01:54:58 10° S visible
03 Dec 6.0 01:17:00 56° SE 01:17:00 56° SE 01:21:24 10° S visible
03 Dec 7.7 02:57:28 13° WSW 02:57:28 13° WSW 02:59:53 10° SW visible
04 Dec 6.8 00:43:31 32° ESE 00:43:31 32° ESE 00:47:30 10° SSE visible
04 Dec 7.0 02:23:59 25° WSW 02:23:59 25° WSW 02:27:49 10° SSW visible
05 Dec 7.4 00:10:01 18° ESE 00:10:01 18° ESE 00:13:02 10° SE visible
05 Dec 6.3 01:50:29 44° WSW 01:50:29 44° WSW 01:54:52 10° S visible
